TimeEDT,TemperatureF,Dew PointF,Humidity,Sea Level PressureIn,VisibilityMPH,Wind Direction,Wind SpeedMPH,Gust SpeedMPH,PrecipitationIn,Events,Conditions,WindDirDegrees,DateUTC
12:53 AM,77.0,73.9,90,30.11,10.0,West,3.5,-,N/A,,Clear,270,2013-07-10 04:53:00
1:53 AM,77.0,73.0,88,30.10,10.0,Calm,Calm,-,N/A,,Clear,0,2013-07-10 05:53:00
2:53 AM,75.9,72.0,87,30.08,10.0,North,-9999.0,-,N/A,,Clear,0,2013-07-10 06:53:00
3:53 AM,75.9,72.0,87,30.06,10.0,North,-9999.0,-,N/A,,Clear,0,2013-07-10 07:53:00
4:53 AM,75.0,72.0,90,30.06,10.0,North,-9999.0,-,N/A,,Clear,0,2013-07-10 08:53:00
5:53 AM,73.9,71.1,91,30.07,10.0,Calm,Calm,-,N/A,Fog,Patches of Fog,0,2013-07-10 09:53:00
6:53 AM,73.9,71.1,91,30.09,10.0,ESE,3.5,-,N/A,,Clear,120,2013-07-10 10:53:00
7:53 AM,75.0,72.0,90,30.10,10.0,Calm,Calm,-,N/A,,Clear,0,2013-07-10 11:53:00
8:53 AM,77.0,73.0,88,30.11,10.0,Calm,Calm,-,N/A,,Clear,0,2013-07-10 12:53:00
9:53 AM,81.0,73.9,79,30.11,10.0,Calm,Calm,-,N/A,,Partly Cloudy,0,2013-07-10 13:53:00
10:53 AM,84.9,73.9,69,30.09,10.0,East,4.6,-,N/A,,Clear,90,2013-07-10 14:53:00
11:53 AM,88.0,72.0,59,30.09,10.0,Variable,5.8,-,N/A,,Mostly Cloudy,0,2013-07-10 15:53:00
12:44 PM,89.6,71.6,55,30.07,10.0,SSW,8.1,-,N/A,Thunderstorm,Thunderstorm,210,2013-07-10 16:44:00
12:53 PM,89.1,71.1,55,30.06,10.0,SW,6.9,-,N/A,Thunderstorm,Thunderstorm,220,2013-07-10 16:53:00
1:38 PM,78.8,71.6,78,30.08,0.2,NW,21.9,34.5,0.00,Rain-Thunderstorm,Thunderstorms and Rain,320,2013-07-10 17:38:00
1:47 PM,77.0,68.0,74,30.07,0.8,NNE,15.0,34.5,0.16,Rain-Thunderstorm,Heavy Thunderstorms and Rain,30,2013-07-10 17:47:00
1:53 PM,78.1,68.0,71,30.07,1.0,Variable,6.9,24.2,0.39,Rain-Thunderstorm,Heavy Thunderstorms and Rain,0,2013-07-10 17:53:00
2:00 PM,77.0,71.6,83,30.08,3.0,South,11.5,-,0.10,Rain-Thunderstorm,Thunderstorms and Rain,170,2013-07-10 18:00:00
2:53 PM,79.0,72.0,79,30.05,10.0,Calm,Calm,-,0.15,Thunderstorm,Thunderstorm,0,2013-07-10 18:53:00
3:53 PM,78.1,72.0,81,30.04,10.0,SSE,3.5,-,N/A,Thunderstorm,Thunderstorm,150,2013-07-10 19:53:00
4:24 PM,78.8,71.6,78,30.03,10.0,East,5.8,-,N/A,,Scattered Clouds,90,2013-07-10 20:24:00
4:53 PM,78.1,72.0,81,30.03,10.0,ESE,4.6,-,N/A,,Scattered Clouds,120,2013-07-10 20:53:00
5:53 PM,78.1,72.0,81,30.04,10.0,Calm,Calm,-,0.00,Rain,Light Rain,0,2013-07-10 21:53:00
6:53 PM,80.1,71.1,74,30.03,10.0,Calm,Calm,-,0.00,,Scattered Clouds,0,2013-07-10 22:53:00
7:39 PM,80.6,71.6,74,30.02,10.0,SSE,3.5,-,N/A,Thunderstorm,Thunderstorm,160,2013-07-10 23:39:00
7:53 PM,80.1,73.0,79,30.02,10.0,Calm,Calm,-,N/A,Thunderstorm,Thunderstorm,0,2013-07-10 23:53:00
8:53 PM,79.0,71.1,77,30.02,10.0,NW,15.0,24.2,N/A,,Scattered Clouds,310,2013-07-11 00:53:00
9:00 PM,78.8,69.8,74,30.01,10.0,NW,13.8,25.3,N/A,,Scattered Clouds,320,2013-07-11 01:00:00
9:53 PM,75.0,70.0,84,30.01,10.0,West,3.5,-,N/A,,Scattered Clouds,280,2013-07-11 01:53:00
10:53 PM,75.0,70.0,84,30.01,10.0,Calm,Calm,-,N/A,,Scattered Clouds,0,2013-07-11 02:53:00
11:53 PM,75.0,70.0,84,30.01,10.0,NNW,8.1,-,N/A,,Clear,330,2013-07-11 03:53:00